COSMOS 2414             
1 28521U 05002A   19258.86964544  .00000017  00000-0  80581-6 0  9992
2 28521  82.9473 108.4409 0040430 158.2703 202.0186 13.87613314742094
SL-8 R/B                
1 28522U 05002B   19258.10400084  .00000140  00000-0  10005-3 0  9992
2 28522  82.9431  94.4742 0046964  87.5407 273.1133 13.89549573742993
TATIANA                 
1 28523U 05002C   19258.67425989  .00000052  00000-0  30621-4 0  9995
2 28523  82.9468 110.4897 0038201 167.5320 192.6798 13.87490131741918